Terug naar catalogus

COSMOS 2041

ActiefMilitairPO
NORAD 20235·PAYLOAD·🇷🇺 Russia

Gelanceerd Sep 14, 1989 vanaf Plesetsk Cosmodrome

Loading…

Volgende Passages (komende 24 uur)

TLE

VersSource: Space-Track

Epoch: Sep 14, 2026, 10:55 UTC

1 20235U 89074D   26257.45511056  .00000040  00000-0  15970-3 0  9998
2 20235  82.5866 152.4868 0007309 254.3343 280.9868 12.64847766707798

Volg COSMOS 2041 in realtime met AllMySat

Download on the App Store